When you browse on this site, cookies collect data to enhance your experience and personalize the content and advertising you see.
Visit our Privacy Policy to learn more. By continuing to use the site, you agree to this use of cookies and data.
  • In Latvia
  • List of Countries
  • For 7 days
  • Water Temperature
  • Satellite Maps
  • Weather Map
  • Weather Widgets
  • user-avatar
    Login

    Hourly Weather Canberra

    Today, 20 May, Monday

    Time Temperature Precipitation Wind Pressure Humidity
    00:00 +8°C° 0 mm 0 mps 716 mmHg 88%
    01:00 +8°C° 0 mm 0 mps 716 mmHg 90%
    02:00 +8°C° 0 mm 0 mps 716 mmHg 90%
    03:00 +8°C° 0 mm 0 mps 716 mmHg 90%
    04:00 +8°C° 0 mm 0 mps 716 mmHg 90%
    05:00 +7°C° 0 mm 0 mps 716 mmHg 90%
    06:00 +7°C° 0 mm 0 mps 716 mmHg 90%
    07:00 +7°C° 0 mm 0 mps 716 mmHg 90%
    08:00 +11°C° 0 mm 1 mps 716 mmHg 82%
    09:00 +13°C° 0 mm 1 mps 716 mmHg 73%
    10:00 +14°C° 0 mm 0 mps 716 mmHg 65%
    11:00 +18°C° 0 mm 1 mps 716 mmHg 60%
    12:00 +18°C° 0 mm 2 mps 715 mmHg 55%
    13:00 +19°C° 0 mm 3 mps 715 mmHg 51%
    14:00 +19°C° 0 mm 3 mps 715 mmHg 53%
    15:00 +19°C° 0 mm 3 mps 715 mmHg 55%
    16:00 +18°C° 0 mm 2 mps 714 mmHg 59%
    17:00 +16°C° 0 mm 2 mps 714 mmHg 67%
    18:00 +14°C° 0 mm 2 mps 714 mmHg 75%
    19:00 +12°C° 0 mm 1 mps 714 mmHg 83%
    20:00 +12°C° 0 mm 1 mps 714 mmHg 84%
    21:00 +11°C° 0 mm 1 mps 714 mmHg 85%
    22:00 +11°C° 0 mm 1 mps 714 mmHg 86%
    23:00 +11°C° 0 mm 1 mps 714 mmHg 86%

    Tomorrow, 21 May, Tuesday

    Time Temperature Precipitation Wind Pressure Humidity
    00:00 +10°C° 0 mm 1 mps 714 mmHg 86%
    01:00 +10°C° 0 mm 1 mps 714 mmHg 86%
    02:00 +10°C° 0 mm 1 mps 713 mmHg 86%
    03:00 +10°C° 0 mm 1 mps 713 mmHg 86%
    04:00 +9°C° 0 mm 1 mps 713 mmHg 86%
    05:00 +9°C° 0 mm 1 mps 713 mmHg 87%
    06:00 +9°C° 0 mm 1 mps 713 mmHg 88%
    07:00 +9°C° 0 mm 1 mps 713 mmHg 89%
    08:00 +10°C° 0 mm 2 mps 714 mmHg 81%
    09:00 +14°C° 0 mm 2 mps 715 mmHg 72%
    10:00 +16°C° 0 mm 3 mps 715 mmHg 63%
    11:00 +18°C° 0 mm 4 mps 715 mmHg 59%
    12:00 +19°C° 0 mm 4 mps 715 mmHg 54%
    13:00 +21°C° 0 mm 5 mps 715 mmHg 50%
    14:00 +20°C° 0 mm 4 mps 714 mmHg 53%
    15:00 +20°C° 0 mm 4 mps 714 mmHg 56%
    16:00 +19°C° 0 mm 3 mps 714 mmHg 59%
    17:00 +17°C° 0 mm 2 mps 714 mmHg 68%
    18:00 +15°C° 0 mm 2 mps 715 mmHg 76%
    19:00 +14°C° 0 mm 1 mps 715 mmHg 85%
    20:00 +13°C° 0 mm 1 mps 715 mmHg 86%
    21:00 +13°C° 0 mm 1 mps 715 mmHg 88%
    22:00 +12°C° 0 mm 1 mps 716 mmHg 89%
    23:00 +12°C° 0 mm 1 mps 715 mmHg 90%

    Day after tomorrow, 22 May, Wednesday

    Time Temperature Precipitation Wind Pressure Humidity
    00:00 +12°C° 0 mm 1 mps 715 mmHg 90%
    01:00 +11°C° 0 mm 1 mps 715 mmHg 91%
    02:00 +11°C° 0 mm 1 mps 715 mmHg 92%
    03:00 +10°C° 0 mm 1 mps 716 mmHg 93%
    04:00 +10°C° 0 mm 1 mps 716 mmHg 93%
    05:00 +9°C° 0 mm 1 mps 716 mmHg 93%
    06:00 +9°C° 0 mm 1 mps 716 mmHg 93%
    07:00 +8°C° 0 mm 0 mps 717 mmHg 92%
    08:00 +10°C° 0 mm 0 mps 717 mmHg 81%
    09:00 +14°C° 0 mm 1 mps 717 mmHg 69%
    10:00 +18°C° 0 mm 1 mps 718 mmHg 57%
    11:00 +19°C° 0 mm 1 mps 718 mmHg 49%
    12:00 +20°C° 0 mm 1 mps 718 mmHg 41%
    13:00 +21°C° 0 mm 2 mps 717 mmHg 33%
    14:00 +20°C° 0 mm 2 mps 717 mmHg 37%
    15:00 +19°C° 0 mm 2 mps 717 mmHg 41%
    16:00 +18°C° 0 mm 2 mps 717 mmHg 44%
    17:00 +16°C° 0 mm 1 mps 717 mmHg 54%
    18:00 +13°C° 0 mm 1 mps 717 mmHg 64%
    19:00 +11°C° 0 mm 1 mps 717 mmHg 73%
    20:00 +10°C° 0 mm 1 mps 717 mmHg 78%
    21:00 +10°C° 0 mm 1 mps 718 mmHg 84%
    22:00 +9°C° 0 mm 1 mps 718 mmHg 89%
    23:00 +9°C° 0 mm 1 mps 718 mmHg 91%

    23 May, Thursday

    Time Temperature Precipitation Wind Pressure Humidity
    00:00 +9°C° 0 mm 1 mps 718 mmHg 93%
    01:00 +9°C° 0 mm 1 mps 717 mmHg 95%
    02:00 +9°C° 0 mm 1 mps 717 mmHg 95%
    03:00 +9°C° 0 mm 1 mps 717 mmHg 96%
    04:00 +9°C° 0 mm 1 mps 717 mmHg 96%
    05:00 +9°C° 0 mm 1 mps 717 mmHg 96%
    06:00 +8°C° 0 mm 0 mps 718 mmHg 95%
    07:00 +8°C° 0 mm 0 mps 718 mmHg 95%
    08:00 +10°C° 0 mm 0 mps 718 mmHg 88%
    09:00 +13°C° 0 mm 1 mps 718 mmHg 82%
    10:00 +14°C° 0 mm 1 mps 718 mmHg 75%
    11:00 +16°C° 0 mm 1 mps 718 mmHg 66%
    12:00 +18°C° 0 mm 1 mps 717 mmHg 57%
    13:00 +19°C° 0 mm 2 mps 716 mmHg 48%
    14:00 +19°C° 0 mm 2 mps 716 mmHg 49%
    15:00 +18°C° 0 mm 2 mps 716 mmHg 51%
    16:00 +18°C° 0 mm 2 mps 716 mmHg 53%
    17:00 +16°C° 0 mm 2 mps 716 mmHg 60%
    18:00 +14°C° 0 mm 1 mps 716 mmHg 68%
    19:00 +12°C° 0 mm 1 mps 715 mmHg 76%
    20:00 +11°C° 0 mm 1 mps 715 mmHg 76%
    21:00 +11°C° 0 mm 1 mps 716 mmHg 75%
    22:00 +10°C° 0 mm 1 mps 716 mmHg 75%
    23:00 +10°C° 0 mm 1 mps 715 mmHg 75%

    24 May, Friday

    Time Temperature Precipitation Wind Pressure Humidity
    00:00 +9°C° 0 mm 1 mps 715 mmHg 75%
    01:00 +9°C° 0 mm 1 mps 715 mmHg 74%
    02:00 +9°C° 0 mm 1 mps 714 mmHg 75%
    03:00 +9°C° 0 mm 1 mps 714 mmHg 76%
    04:00 +7°C° 0 mm 0 mps 713 mmHg 77%
    05:00 +7°C° 0 mm 0 mps 714 mmHg 77%
    06:00 +7°C° 0 mm 0 mps 714 mmHg 77%
    07:00 +7°C° 0 mm 0 mps 714 mmHg 77%
    08:00 +10°C° 0 mm 1 mps 714 mmHg 69%
    09:00 +13°C° 0 mm 1 mps 714 mmHg 61%
    10:00 +15°C° 0 mm 2 mps 714 mmHg 53%
    11:00 +16°C° 0 mm 3 mps 714 mmHg 52%
    12:00 +17°C° 0 mm 3 mps 713 mmHg 51%
    13:00 +19°C° 0 mm 4 mps 713 mmHg 49%
    14:00 +18°C° 0 mm 4 mps 713 mmHg 52%
    15:00 +18°C° 0 mm 3 mps 712 mmHg 54%
    16:00 +17°C° 0 mm 3 mps 712 mmHg 57%
    17:00 +16°C° 0 mm 2 mps 712 mmHg 62%
    18:00 +15°C° 0 mm 2 mps 712 mmHg 68%
    19:00 +13°C° 0 mm 1 mps 712 mmHg 74%
    20:00 +13°C° 0 mm 1 mps 712 mmHg 74%
    21:00 +13°C° 0 mm 2 mps 712 mmHg 74%
    22:00 +12°C° 0 mm 2 mps 712 mmHg 75%
    23:00 +12°C° 0 mm 2 mps 712 mmHg 77%

    25 May, Saturday

    Time Temperature Precipitation Wind Pressure Humidity
    00:00 +10°C° 0 mm 2 mps 712 mmHg 78%
    01:00 +10°C° 0 mm 2 mps 711 mmHg 80%
    02:00 +9°C° 0 mm 2 mps 711 mmHg 82%
    03:00 +10°C° 0 mm 1 mps 711 mmHg 84%
    04:00 +9°C° 0 mm 1 mps 711 mmHg 86%
    05:00 +9°C° 0 mm 1 mps 711 mmHg 87%
    06:00 +9°C° 0 mm 1 mps 711 mmHg 88%
    07:00 +8°C° 0 mm 1 mps 712 mmHg 89%
    08:00 +10°C° 0 mm 2 mps 712 mmHg 80%
    09:00 +13°C° 0 mm 2 mps 712 mmHg 70%
    10:00 +16°C° 0 mm 3 mps 712 mmHg 61%
    11:00 +17°C° 0 mm 4 mps 712 mmHg 55%
    12:00 +19°C° 0 mm 5 mps 711 mmHg 49%
    13:00 +20°C° 0 mm 6 mps 711 mmHg 43%
    14:00 +20°C° 0 mm 5 mps 711 mmHg 46%
    15:00 +19°C° 0 mm 4 mps 710 mmHg 49%
    16:00 +19°C° 0 mm 4 mps 710 mmHg 51%
    17:00 +16°C° 0 mm 3 mps 710 mmHg 61%
    18:00 +14°C° 0 mm 2 mps 710 mmHg 71%
    19:00 +11°C° 0 mm 0 mps 710 mmHg 80%
    20:00 +12°C° 0 mm 1 mps 710 mmHg 79%
    21:00 +12°C° 0 mm 1 mps 710 mmHg 77%
    22:00 +12°C° 0 mm 1 mps 710 mmHg 75%
    23:00 +12°C° 0 mm 2 mps 709 mmHg 77%
    Show more